Hlavní strana
METAR-TAF:

METAR-TAF

Letiště :

Mora–Siljan

Mora, Švédsko

zeměpisná šířka: 60-57-31N, zeměpisná délka: 14-30-40E, výška: 193 m

Aktuální stav počasí

Zpráva byla vytvořena před 24 minutami, v 17:50 UTC
Severozápadní vítr 12 kt
Teplota -1°C
Vlhkost vzduchu 54%
Tlak 1015 hPa
Viditelnost 10 km a více

METAR: ESKM 071750Z AUTO 31012KT 9999 NCD M01/M09 Q1015

Čas: 19:14 (18:14 UTC)


TAF: chybějící

Stav a předpovědi počasí z více než 4 000 letišť (zprávy METAR a TAF).

Červené a žluté tečky na mapě představují dostupné meteorologické stanice.

Když kurzor umístíte na tečku, zobrazí se název stanice.

Pak kliknutím zobrazíte stav a předpověď počasí.

Chcete-li změnit mapu, kliknutím na zelené tlačítko se znaménkem +mapu přiblížíte, kliknutím na zelené tlačítko se znaménkem – mapu oddálíte a kliknutím na zelené šipky přejdete na sousední mapy.


METAR-TAF: